EZY742 EGKK-EGJJ

Flight info

Callsign EZY742
Flight time N/A
Altitude 18000
Route IMVUR N63 LELNA
Aircraft A20N/M-SDE2E3FGHIRWXY/LB1

Departure

Time 2026-05-04 12:08
Airport London Gatwick Airport (EGKK)

Arrival

Time N/A
Airport Jersey Airport (EGJJ)
Time Latitude Longitude Altitude Speed Heading
2026-05-04 11:34 51.15750 -0.16768 218 ft 0 kts 349°
2026-05-04 11:46 51.15747 -0.16767 217 ft 3 kts 349°
2026-05-04 11:46 51.15728 -0.16762 218 ft 3 kts 349°
2026-05-04 11:46 51.15710 -0.16756 213 ft 2 kts 347°
2026-05-04 11:46 51.15695 -0.16743 216 ft 2 kts 317°
2026-05-04 11:47 51.15688 -0.16724 212 ft 0 kts 262°
2026-05-04 11:52 51.15686 -0.16735 215 ft 5 kts 257°
2026-05-04 11:52 51.15675 -0.16814 215 ft 10 kts 257°
2026-05-04 11:52 51.15657 -0.16940 212 ft 10 kts 258°
2026-05-04 11:53 51.15645 -0.17032 211 ft 9 kts 257°
2026-05-04 11:53 51.15640 -0.17063 208 ft 0 kts 257°
2026-05-04 11:53 51.15640 -0.17065 208 ft 2 kts 257°
2026-05-04 11:55 51.15529 -0.17580 213 ft 9 kts 258°
2026-05-04 11:55 51.15513 -0.17701 216 ft 13 kts 258°
2026-05-04 11:56 51.15492 -0.17849 208 ft 14 kts 257°
2026-05-04 11:56 51.15472 -0.17994 217 ft 11 kts 257°
2026-05-04 11:56 51.15467 -0.18030 211 ft 2 kts 257°
2026-05-04 11:56 51.15454 -0.18127 214 ft 12 kts 258°
2026-05-04 11:57 51.15435 -0.18250 208 ft 8 kts 244°
2026-05-04 11:57 51.15361 -0.18268 208 ft 19 kts 168°
2026-05-04 11:57 51.15260 -0.18233 214 ft 9 kts 168°
2026-05-04 11:57 51.15202 -0.18237 211 ft 6 kts 221°
2026-05-04 11:58 51.15187 -0.18313 218 ft 11 kts 260°
2026-05-04 11:58 51.15171 -0.18427 213 ft 11 kts 257°
2026-05-04 11:58 51.15148 -0.18591 208 ft 19 kts 257°
2026-05-04 11:58 51.15118 -0.18814 212 ft 21 kts 257°
2026-05-04 11:59 51.15089 -0.19032 216 ft 16 kts 258°
2026-05-04 11:59 51.15070 -0.19184 211 ft 13 kts 258°
2026-05-04 11:59 51.15040 -0.19265 211 ft 7 kts 195°
2026-05-04 11:59 51.14986 -0.19268 212 ft 6 kts 204°
2026-05-04 12:00 51.14950 -0.19380 211 ft 17 kts 258°
2026-05-04 12:00 51.14922 -0.19584 214 ft 21 kts 258°
2026-05-04 12:00 51.14891 -0.19812 215 ft 22 kts 257°
2026-05-04 12:00 51.14856 -0.20061 217 ft 24 kts 257°
2026-05-04 12:01 51.14820 -0.20316 206 ft 25 kts 258°
2026-05-04 12:01 51.14786 -0.20563 214 ft 22 kts 257°
2026-05-04 12:02 51.14697 -0.21207 216 ft 0 kts 257°
2026-05-04 12:04 51.14697 -0.21208 216 ft 1 kts 257°
2026-05-04 12:05 51.14692 -0.21245 210 ft 6 kts 258°
2026-05-04 12:05 51.14668 -0.21329 218 ft 11 kts 218°
2026-05-04 12:05 51.14625 -0.21332 213 ft 2 kts 165°
2026-05-04 12:05 51.14620 -0.21330 211 ft 0 kts 166°
2026-05-04 12:06 51.14574 -0.21310 212 ft 12 kts 159°
2026-05-04 12:06 51.14530 -0.21246 215 ft 8 kts 127°
2026-05-04 12:07 51.14526 -0.21134 218 ft 12 kts 78°
2026-05-04 12:07 51.14529 -0.21113 213 ft 0 kts 78°
2026-05-04 12:07 51.14541 -0.21029 218 ft 36 kts 78°
2026-05-04 12:08 51.14656 -0.20203 220 ft 118 kts 77°
2026-05-04 12:08 51.14875 -0.18599 484 ft 164 kts 77°
2026-05-04 12:08 51.15120 -0.16815 1449 ft 164 kts 77°
2026-05-04 12:08 51.15368 -0.15015 2329 ft 172 kts 78°
2026-05-04 12:09 51.15636 -0.13057 2826 ft 197 kts 78°
2026-05-04 12:09 51.15957 -0.10717 3001 ft 234 kts 78°
2026-05-04 12:09 51.16419 -0.08115 3736 ft 249 kts 65°
2026-05-04 12:09 51.17485 -0.06043 4990 ft 241 kts 34°
2026-05-04 12:10 51.19044 -0.05202 6045 ft 241 kts
2026-05-04 12:10 51.20691 -0.05670 6923 ft 243 kts 335°
2026-05-04 12:10 51.22022 -0.07301 7766 ft 244 kts 305°
2026-05-04 12:10 51.22669 -0.09793 8515 ft 251 kts 275°
2026-05-04 12:11 51.22580 -0.12674 8944 ft 271 kts 259°
2026-05-04 12:11 51.22213 -0.15687 9726 ft 279 kts 257°
2026-05-04 12:11 51.21818 -0.18728 10660 ft 281 kts 257°
2026-05-04 12:11 51.21432 -0.21802 11573 ft 285 kts 257°
2026-05-04 12:12 51.21052 -0.24930 12492 ft 289 kts 257°
2026-05-04 12:12 51.20673 -0.28111 13450 ft 294 kts 258°
2026-05-04 12:12 51.20293 -0.31339 14299 ft 298 kts 258°
2026-05-04 12:12 51.19898 -0.34613 15109 ft 303 kts 257°
2026-05-04 12:13 51.19472 -0.37932 15905 ft 308 kts 256°
2026-05-04 12:14 51.15261 -0.62108 20022 ft 358 kts 244°
2026-05-04 12:15 51.14232 -0.65812 20327 ft 373 kts 244°
2026-05-04 12:15 51.13165 -0.69632 20378 ft 378 kts 244°